7 * 24
多渠道服务支持
STARLINK-11500 是 SpaceX Starlink 卫星互联网项目中的一颗低轨道卫星,属于第54批部署的“星链”卫星之一。该卫星于2023年发射,旨在为全球用户提供高速、低延迟的宽带互联网服务。它运行在约550公里的近地轨道,配备先进通信设备,支持Ka和Ku频段传输。Starlink 项目计划部署数万颗卫星,以构建覆盖全球的卫星网络,尤其服务于偏远和网络基础设施薄弱地区。STARLINK-11500 的部署进一步增强了 Starlink 网络的稳定性和覆盖范围。
美国
(US)
| 数据来源 | 国际轨道数据 |
| 星历时间: | 2025-12-21T16:24:45+0800 12小时前 查看轨道信息 |
| 半长轴: | 6734.404km |
| 偏心率: | 0.0003672 |
| 轨道倾角: | 43.002° |
| 近地点辐角 | 276.978° |
| 升交点赤经 | 334.903° |
| 平近点角 | 83.067° |
| 近地点: | 353.794km |
| 远地点: | 358.74km |
| 周期: | 91.666分钟 |
| 每日圈数: | 15.7092 |